Погода в Серафимовиче

Погода в Серафимовиче : погода сейчас, прогноз погоды и архив. Всё, что Вы хотите узнать о погоде в Серафимовиче!

Поиск расширенной информации на нашем сайте:

Другие новости

Новости СМИ2

Главная страница сайта

Новости сайта

03.07.2017

Напоминаем, что на нашем специализированном сайте Метеоцентр.Азия вы можете получить высокодетализированные автоматические прогнозы погоды по пунктам России, СНГ и мира в авиационном формате (включающие направление и скорость ветра, видимость, явления погоды, количество и форму облачности, нижнюю и верхнюю границу облачности).

Рекомендуем: Работаем с овощами и салатами. Для ускорения работы используйте яйцерезку, это удобно.

Погода в Серафимовиче - сегодня

Время (UTC), дата Ветер
(°,м/с) 
Видим.   Явления Облачность Т
(°С)
Тd
(°С)
f(%) Тe
(°С)
Pmin
(гПа)
dP
(гПа)
Po
(мм)
O2
(г/м3)
Тmin Tmax R s Состояние
почвы
00 12.11.18 090 (В) 6-10{12}  20000 м    ясно 
-6.6 -13.5 58 -11  1043.4  0.4  770  319           
03 12.11.18 080 (В) 6-10  20000 м    3/0 средняя 
[Ac trans]
-8 -13.4 65 -13  1044.1  0.7  771  321  -8         
06 12.11.18 080 (В) 6-10{11}  20000 м    8/0 средняя, верхняя 
[Ac trans|Ci fib]
-8 -13.6 64 -13  1045.1  0.9  771  321  -8.3         
09 12.11.18 090 (В) 7-13{14}  20000 м    8/0 средняя, верхняя 
[Ac trans|Ci fib]
-4.6 -17.8 35 -9  1044.5  -0.3  771  317           
12 12.11.18 080 (В) 6-11{14}  20000 м    8/0 средняя, верхняя 
[Ac trans|Ci fib]
-3.4 -18.3 31 -8  1043.9  -0.6  771  316           
15 12.11.18 080 (В) 7-12  20000 м    8/0 средняя, верхняя 
[Ac trans|Ci fib]
-4.9 -16.6 39 -10  1044.2  0.2  771  318    -3.4       
18 12.11.18 090 (В) 7-12{13}  20000 м    6/0 средняя, верхняя 
[Ac trans|Ci fib]
-6.2 -15.6 47 -11  1043.9  -0.4  770  319           
21 12.11.18 090 (В) 6-10{12}  20000 м    3/0 верхняя 
[Ci fib]
-6.5 -16.2 46 -11  1043.3  -0.6  770  319           
00 13.11.18 090 (В) 6-10{11}  20000 м    8/0 средняя, верхняя 
[Ac trans|Ci fib]
-6.7 -15.5 50 -11  1042.5  -0.8  769  319           
03 13.11.18 080 (В) 5{11}  20000 м    8/0 средняя 
[Ac trans]
-6.9 -15.6 50 -11  1042.3  -0.2  769  319  -7.2         
06 13.11.18 080 (В) 5{10}  20000 м    8/5 600 м средняя 
[Sc|Ac trans]
-6.3 -15.9 46 -10  1042.6  0.4  770  319           
12 13.11.18 080 (В) 6-10{13}  20000 м    8/0 средняя 
[Ac trans]
-1.8 -17.6 29 -6  1041.5  -0.5  769  313           
15 13.11.18 080 (В) 5{12}  20000 м    ясно 
-3.6 -15.2 40 -7  1041.8  0.1  769  315    -1.2       
18 13.11.18 090 (В) 20000 м    ясно 
-5.6 -14.1 51 -8  1041.4  -0.5  769  317           
21 13.11.18 100 (В) 20000 м    ясно 
-6.5 -14.4 53 -9  1040.6  -0.9  768  318           
00 14.11.18 100 (В) 20000 м    ясно 
-8.1 -14.5 60 -11  1039.9  -0.8  767  320           
03 14.11.18 100 (В) 20000 м    ясно 
-9.6 -14.1 70 -13  1038.7  -1.3  767  321  -9.6         
06 14.11.18 100 (В) 20000 м    ясно 
-8.3 -13.9 64 -12  1038.1  -0.5  766  320  -9.8         
09 14.11.18 110 (В) 20000 м    ясно 
-1.3 -12.4 43 -4  1036.4  -1.3  765  311           
12 14.11.18 110 (В) 6{10}  20000 м    ясно 
+2 -18.1 21 -1  1034.5  -1.7  764  307           
15 14.11.18 100 (В) 20000 м    ясно 
-1.5 -16.4 31 -4  1034.6  764  311    +2.3       
18 14.11.18 120 (ЮВ) 20000 м    ясно 
-3.4 -15.6 38 -6  1034.5  -0.3  764  313           
21 14.11.18 110 (В) 20000 м    ясно 
-5.6 -15.5 46 -8  1034.4  -0.2  764  315           
00 15.11.18 110 (В) 20000 м    ясно 
-6.1 -14.9 50 -9  1033.8  -0.5  763  316           
03 15.11.18 100 (В) 20000 м    ясно 
-8.3 -15.4 57 -8  1034.4  -0.5  763  319  -8.3         
Время (UTC), дата Ветер
(°,м/с) 
Видим.   Явления Облачность Т
(°С)
Тd
(°С)
f(%) Тe
(°С)
Pmin
(гПа)
dP
(гПа)
Po
(мм)
O2
(г/м3)
Тmin Tmax R s Состояние
почвы

Для получения пояснительной информации подведите курсор к названию столбца.

ПОГОДА в Серафимовиче - архив

Всё, что Вы хотите узнать о погоде в Серафимовиче - удобно и подробно!

Выберите нужную дату (начиная с 1 января 2015* года) и нажмите кнопку "Найти".
Будут отображены архивные сводки погоды по пункту Серафимович, начиная с указанной даты.


Отображать данные в формате CSV (для использования в таблицах Excel)


Внимание! Наш архив погоды предназначен исключительно для личного некоммерческого использования в познавательных целях. Если Вам необходимы официальные справки о состоянии погоды (для производственных, юридических, коммерческих и т.п. целей), обращайтесь в органы Росгидромета.

*Примечание: данная дата относится к архиву по метеостанциям СССР (Россия, СНГ, Балтия).
Архив по метеостанциям Зарубежной Европы и Азии (кроме Китая) хранится 10 дней, по другим регионам земного шара (Китай, Африка, Америка, Австралия, Океания) - 1 день.

Серафимович - район местоположения метеостанции


Название, широта, долгота, высота метеостанции:
Серафимович 49.6°ш. 42.8°д. 200 м над ур. моря [Российская Федерация]

Дополнительная информация

В oтличие oт бoльшинства пoгoдных сайтoв мы публикуем пoдрoбную метеoинфoрмацию в детальнoм прoфессиoнальнoм фoрмате.

Характеристики температуры и влажнoсти вoздуха измеряются на высoте 2 м в тени вдали oт зданий и деревьев.
Скoрoсть ветра измеряется на высoте 10 м (на урoвне рoста челoвека скoрoсть ветра ниже в 1.5-2 раза). Если метеoстанция нахoдится в гoрoде или в лесу, тo скoрoсть ветра занижена на 2-4 м/с пo сравнению с oткрытым местoм. Скoрoсть ветра над акватoриями крупных рек и oзёр, а также на вершинах хoлмoв на 2-5 м/с выше, чем в oбычных услoвиях.
Атмoсфернoе давление в разных тoчках местнoсти мoжет значительнo oтличаться oт давления на метеoстанции, в зависимoсти oт услoвий рельефа (при пoдъёме на 10 м давление пoнижается примернo на 1 мм рт.ст.).